Hourly Weather San Luis

Today, 15 July, Wednesday

Time Temperature Precipitation Wind Pressure Humidity
00:00 +7°C° 0 mm 3 mps 700 mmHg 58%
01:00 +7°C° 0 mm 3 mps 700 mmHg 59%
02:00 +5°C° 0 mm 3 mps 700 mmHg 60%
03:00 +5°C° 0 mm 3 mps 699 mmHg 62%
04:00 +5°C° 0 mm 3 mps 699 mmHg 64%
05:00 +6°C° 0 mm 2 mps 699 mmHg 67%
06:00 +6°C° 0 mm 2 mps 699 mmHg 66%
07:00 +6°C° 0 mm 2 mps 699 mmHg 66%
08:00 +6°C° 0 mm 2 mps 700 mmHg 65%
09:00 +8°C° 0 mm 3 mps 700 mmHg 57%
10:00 +11°C° 0 mm 4 mps 700 mmHg 49%
11:00 +13°C° 0 mm 4 mps 700 mmHg 41%
12:00 +14°C° 0 mm 4 mps 700 mmHg 40%
13:00 +15°C° 0 mm 4 mps 699 mmHg 39%
14:00 +17°C° 0 mm 4 mps 699 mmHg 37%
15:00 +15°C° 0 mm 4 mps 698 mmHg 40%
16:00 +16°C° 0 mm 3 mps 698 mmHg 42%
17:00 +14°C° 0 mm 3 mps 698 mmHg 44%
18:00 +12°C° 0 mm 3 mps 698 mmHg 51%
19:00 +10°C° 0 mm 2 mps 698 mmHg 57%
20:00 +9°C° 0 mm 2 mps 698 mmHg 64%
21:00 +8°C° 0 mm 2 mps 698 mmHg 66%
22:00 +8°C° 0 mm 2 mps 698 mmHg 67%
23:00 +8°C° 0 mm 3 mps 698 mmHg 69%

Tomorrow, 16 July, Thursday

Time Temperature Precipitation Wind Pressure Humidity
00:00 +8°C° 0 mm 3 mps 698 mmHg 69%
01:00 +7°C° 0 mm 4 mps 698 mmHg 68%
02:00 +7°C° 0 mm 5 mps 698 mmHg 67%
03:00 +6°C° 0 mm 4 mps 698 mmHg 67%
04:00 +6°C° 0 mm 4 mps 698 mmHg 68%
05:00 +5°C° 0 mm 3 mps 697 mmHg 69%
06:00 +5°C° 0 mm 3 mps 698 mmHg 66%
07:00 +7°C° 0 mm 3 mps 698 mmHg 63%
08:00 +7°C° 0 mm 3 mps 699 mmHg 60%
09:00 +9°C° 0 mm 3 mps 699 mmHg 53%
10:00 +12°C° 0 mm 3 mps 699 mmHg 46%
11:00 +16°C° 0 mm 3 mps 699 mmHg 38%
12:00 +17°C° 0 mm 3 mps 699 mmHg 36%
13:00 +18°C° 0 mm 3 mps 698 mmHg 34%
14:00 +19°C° 0 mm 3 mps 698 mmHg 31%
15:00 +18°C° 0 mm 3 mps 698 mmHg 34%
16:00 +17°C° 0 mm 2 mps 697 mmHg 37%
17:00 +16°C° 0 mm 1 mps 697 mmHg 40%
18:00 +14°C° 0 mm 2 mps 697 mmHg 45%
19:00 +12°C° 0 mm 2 mps 697 mmHg 50%
20:00 +9°C° 0 mm 2 mps 696 mmHg 55%
21:00 +9°C° 0 mm 2 mps 696 mmHg 57%
22:00 +8°C° 0 mm 2 mps 696 mmHg 59%
23:00 +8°C° 0 mm 2 mps 696 mmHg 61%

Day after tomorrow, 17 July, Friday

Time Temperature Precipitation Wind Pressure Humidity
00:00 +8°C° 0 mm 2 mps 696 mmHg 61%
01:00 +8°C° 0 mm 2 mps 696 mmHg 61%
02:00 +8°C° 0 mm 2 mps 695 mmHg 61%
03:00 +8°C° 0 mm 2 mps 695 mmHg 62%
04:00 +8°C° 0 mm 3 mps 695 mmHg 64%
05:00 +8°C° 0 mm 3 mps 694 mmHg 65%
06:00 +8°C° 0 mm 3 mps 694 mmHg 66%
07:00 +8°C° 0 mm 3 mps 694 mmHg 66%
08:00 +8°C° 0 mm 3 mps 694 mmHg 67%
09:00 +11°C° 0 mm 4 mps 694 mmHg 59%
10:00 +14°C° 0 mm 6 mps 694 mmHg 52%
11:00 +17°C° 0 mm 7 mps 694 mmHg 45%
12:00 +17°C° 0 mm 7 mps 694 mmHg 43%
13:00 +18°C° 0 mm 8 mps 693 mmHg 42%
14:00 +20°C° 0 mm 8 mps 692 mmHg 40%
15:00 +20°C° 0 mm 7 mps 692 mmHg 43%
16:00 +19°C° 0 mm 6 mps 691 mmHg 45%
17:00 +19°C° 0 mm 5 mps 691 mmHg 47%
18:00 +17°C° 0 mm 4 mps 691 mmHg 53%
19:00 +14°C° 0 mm 4 mps 691 mmHg 59%
20:00 +12°C° 0 mm 3 mps 690 mmHg 65%
21:00 +12°C° 0 mm 3 mps 691 mmHg 68%
22:00 +12°C° 0 mm 3 mps 691 mmHg 72%
23:00 +11°C° 0 mm 3 mps 691 mmHg 75%

18 July, Saturday

Time Temperature Precipitation Wind Pressure Humidity
00:00 +11°C° 0 mm 3 mps 691 mmHg 73%
01:00 +12°C° 0 mm 3 mps 691 mmHg 72%
02:00 +12°C° 0 mm 3 mps 691 mmHg 71%
03:00 +11°C° 0 mm 3 mps 691 mmHg 73%
04:00 +12°C° 0 mm 2 mps 691 mmHg 75%
05:00 +11°C° 0 mm 1 mps 691 mmHg 77%
06:00 +11°C° 0 mm 1 mps 691 mmHg 76%
07:00 +10°C° 0 mm 2 mps 691 mmHg 76%
08:00 +10°C° 0 mm 2 mps 692 mmHg 76%
09:00 +14°C° 0 mm 2 mps 693 mmHg 68%
10:00 +16°C° 0 mm 2 mps 693 mmHg 59%
11:00 +20°C° 0 mm 1 mps 694 mmHg 51%
12:00 +21°C° 0 mm 1 mps 693 mmHg 49%
13:00 +22°C° 0 mm 1 mps 693 mmHg 46%
14:00 +23°C° 0 mm 1 mps 693 mmHg 43%
15:00 +23°C° 0 mm 2 mps 693 mmHg 45%
16:00 +21°C° 0 mm 2 mps 693 mmHg 47%
17:00 +21°C° 0 mm 3 mps 693 mmHg 48%
18:00 +19°C° 0 mm 3 mps 693 mmHg 56%
19:00 +17°C° 0 mm 4 mps 693 mmHg 65%
20:00 +14°C° 0 mm 4 mps 693 mmHg 73%
21:00 +14°C° 0 mm 4 mps 693 mmHg 78%
22:00 +14°C° 0 mm 4 mps 693 mmHg 84%
23:00 +13°C° 0 mm 4 mps 694 mmHg 89%

19 July, Sunday

Time Temperature Precipitation Wind Pressure Humidity
00:00 +13°C° 0 mm 4 mps 694 mmHg 89%
01:00 +13°C° 0 mm 4 mps 694 mmHg 89%
02:00 +13°C° 0 mm 4 mps 693 mmHg 90%
03:00 +13°C° 0 mm 4 mps 693 mmHg 90%
04:00 +13°C° 0 mm 3 mps 693 mmHg 90%
05:00 +13°C° 0 mm 3 mps 693 mmHg 90%
06:00 +13°C° 0 mm 3 mps 693 mmHg 91%
07:00 +13°C° 0 mm 3 mps 693 mmHg 92%
08:00 +13°C° 0 mm 3 mps 693 mmHg 93%
09:00 +16°C° 0 mm 2 mps 694 mmHg 84%
10:00 +17°C° 0 mm 2 mps 694 mmHg 76%
11:00 +19°C° 0 mm 2 mps 695 mmHg 68%
12:00 +20°C° 0 mm 2 mps 694 mmHg 64%
13:00 +20°C° 0 mm 3 mps 694 mmHg 60%
14:00 +21°C° 0 mm 4 mps 693 mmHg 57%
15:00 +20°C° 0 mm 3 mps 693 mmHg 61%
16:00 +19°C° 0 mm 3 mps 693 mmHg 66%
17:00 +18°C° 0 mm 3 mps 693 mmHg 71%
18:00 +17°C° 0 mm 3 mps 693 mmHg 78%
19:00 +16°C° 0 mm 3 mps 693 mmHg 85%
20:00 +15°C° 0 mm 2 mps 693 mmHg 92%
21:00 +14°C° 0 mm 2 mps 693 mmHg 93%
22:00 +14°C° 0 mm 2 mps 693 mmHg 93%
23:00 +13°C° 0 mm 2 mps 693 mmHg 94%

20 July, Monday

Time Temperature Precipitation Wind Pressure Humidity
00:00 +13°C° 0 mm 2 mps 693 mmHg 94%
01:00 +13°C° 0 mm 2 mps 693 mmHg 94%
02:00 +13°C° 0 mm 1 mps 693 mmHg 94%
03:00 +13°C° 0 mm 2 mps 693 mmHg 94%
04:00 +13°C° 0 mm 2 mps 693 mmHg 94%
05:00 +13°C° 0 mm 2 mps 693 mmHg 95%
06:00 +13°C° 0 mm 2 mps 694 mmHg 95%
07:00 +14°C° 0 mm 2 mps 694 mmHg 95%
08:00 +13°C° 0 mm 3 mps 694 mmHg 95%
09:00 +14°C° 0.1 mm 3 mps 695 mmHg 89%
10:00 +15°C° 0.1 mm 4 mps 696 mmHg 83%
11:00 +17°C° 0.1 mm 4 mps 696 mmHg 77%
12:00 +16°C° 0 mm 5 mps 696 mmHg 75%
13:00 +17°C° 0 mm 5 mps 696 mmHg 73%
14:00 +17°C° 0 mm 6 mps 695 mmHg 72%
15:00 +16°C° 0 mm 6 mps 695 mmHg 75%
16:00 +15°C° 0 mm 6 mps 695 mmHg 78%
17:00 +14°C° 0 mm 6 mps 695 mmHg 82%
18:00 +13°C° 0 mm 6 mps 695 mmHg 84%
19:00 +13°C° 0 mm 6 mps 695 mmHg 87%
20:00 +11°C° 0 mm 6 mps 695 mmHg 90%
21:00 +12°C° 0 mm 5 mps 695 mmHg 90%
22:00 +12°C° 0 mm 5 mps 695 mmHg 90%
23:00 +12°C° 0 mm 4 mps 695 mmHg 90%
Show more